TimeMDT,TemperatureF,Dew PointF,Humidity,Sea Level PressureIn,VisibilityMPH,Wind Direction,Wind SpeedMPH,Gust SpeedMPH,PrecipitationIn,Events,Conditions,WindDirDegrees,DateUTC
12:15 AM,50.0,28.9,44,30.32,10.0,West,3.5,-,N/A,,Scattered Clouds,270,2013-04-27 06:15:00
12:35 AM,48.0,28.4,47,30.32,10.0,West,5.8,-,N/A,,Clear,280,2013-04-27 06:35:00
12:55 AM,43.3,26.6,52,30.32,10.0,WNW,6.9,-,N/A,,Clear,300,2013-04-27 06:55:00
1:15 AM,42.3,26.4,54,30.31,10.0,NNW,3.5,-,N/A,,Clear,340,2013-04-27 07:15:00
1:35 AM,41.0,26.1,55,30.31,10.0,Calm,Calm,-,N/A,,Clear,0,2013-04-27 07:35:00
1:55 AM,39.4,24.6,56,30.31,10.0,NNE,4.6,-,N/A,,Clear,20,2013-04-27 07:55:00
2:15 AM,38.5,25.2,59,30.31,10.0,Calm,Calm,-,N/A,,Clear,0,2013-04-27 08:15:00
2:35 AM,40.1,26.6,59,30.30,10.0,Calm,Calm,-,N/A,,Clear,0,2013-04-27 08:35:00
2:55 AM,34.2,20.7,58,30.29,10.0,NW,3.5,-,N/A,,Clear,320,2013-04-27 08:55:00
3:15 AM,33.4,22.6,65,30.30,10.0,NNW,3.5,-,N/A,,Clear,340,2013-04-27 09:15:00
3:35 AM,32.4,20.8,63,30.29,10.0,Calm,Calm,-,N/A,,Clear,0,2013-04-27 09:35:00
3:55 AM,31.8,21.0,64,30.30,10.0,NNE,4.6,-,N/A,,Clear,30,2013-04-27 09:55:00
4:15 AM,32.2,21.7,65,30.30,10.0,ENE,4.6,-,N/A,,Clear,70,2013-04-27 10:15:00
5:35 AM,30.2,20.3,67,30.30,10.0,Calm,Calm,-,N/A,,Clear,0,2013-04-27 11:35:00
5:55 AM,28.8,19.4,68,30.31,10.0,North,4.6,-,N/A,,Clear,10,2013-04-27 11:55:00
6:15 AM,28.9,19.8,69,30.31,10.0,NNE,5.8,-,N/A,,Clear,20,2013-04-27 12:15:00
6:35 AM,28.8,19.2,68,30.31,10.0,North,6.9,-,N/A,,Clear,10,2013-04-27 12:35:00
6:55 AM,30.0,19.8,66,30.32,10.0,North,3.5,-,N/A,,Clear,350,2013-04-27 12:55:00
7:15 AM,33.8,21.9,62,30.32,10.0,NW,5.8,-,N/A,,Clear,320,2013-04-27 13:15:00
7:35 AM,38.5,24.4,57,30.32,10.0,NW,3.5,-,N/A,,Clear,320,2013-04-27 13:35:00
7:55 AM,42.1,25.7,52,30.33,10.0,Calm,Calm,-,N/A,,Clear,0,2013-04-27 13:55:00
8:15 AM,46.6,26.8,46,30.32,10.0,Calm,Calm,-,N/A,,Clear,0,2013-04-27 14:15:00
8:35 AM,50.4,27.3,41,30.32,10.0,Calm,Calm,-,N/A,,Clear,0,2013-04-27 14:35:00
8:55 AM,53.4,28.0,38,30.32,10.0,WNW,3.5,-,N/A,,Clear,300,2013-04-27 14:55:00
9:15 AM,55.9,28.2,35,30.32,10.0,Calm,Calm,-,N/A,,Clear,0,2013-04-27 15:15:00
9:35 AM,57.7,28.2,32,30.31,10.0,Calm,Calm,-,N/A,,Clear,0,2013-04-27 15:35:00
9:55 AM,59.9,28.2,30,30.31,10.0,Calm,Calm,-,N/A,,Clear,0,2013-04-27 15:55:00
10:15 AM,61.2,27.5,28,30.31,10.0,SSE,4.6,-,N/A,,Clear,160,2013-04-27 16:15:00
10:35 AM,64.4,26.8,24,30.31,10.0,SSE,4.6,-,N/A,,Clear,150,2013-04-27 16:35:00
10:55 AM,64.0,24.8,23,30.31,10.0,Calm,Calm,-,N/A,,Clear,0,2013-04-27 16:55:00
11:15 AM,65.8,24.6,21,30.30,10.0,SSW,5.8,-,N/A,,Clear,210,2013-04-27 17:15:00
11:35 AM,64.8,19.8,18,30.29,10.0,Calm,Calm,-,N/A,,Clear,0,2013-04-27 17:35:00
11:55 AM,67.5,16.7,14,30.28,10.0,WNW,6.9,-,N/A,,Clear,300,2013-04-27 17:55:00
12:15 PM,68.2,18.0,15,30.28,10.0,South,8.1,-,N/A,,Clear,190,2013-04-27 18:15:00
12:35 PM,68.5,19.2,15,30.26,10.0,SSW,8.1,-,N/A,,Clear,200,2013-04-27 18:35:00
12:55 PM,68.9,18.1,14,30.25,10.0,Calm,Calm,-,N/A,,Clear,0,2013-04-27 18:55:00
1:15 PM,71.4,19.4,14,30.24,10.0,SW,6.9,-,N/A,,Clear,220,2013-04-27 19:15:00
1:35 PM,70.9,18.9,14,30.23,10.0,NNE,13.8,23.0,N/A,,Clear,20,2013-04-27 19:35:00
1:55 PM,68.9,16.9,14,30.23,10.0,North,10.4,27.6,N/A,,Scattered Clouds,360,2013-04-27 19:55:00
2:15 PM,72.1,13.1,10,30.21,10.0,NNW,4.6,-,N/A,,Scattered Clouds,330,2013-04-27 20:15:00
2:35 PM,72.9,10.0,9,30.20,10.0,WNW,6.9,18.4,N/A,,Clear,300,2013-04-27 20:35:00
2:55 PM,72.3,8.2,8,30.19,10.0,Calm,Calm,-,N/A,,Clear,0,2013-04-27 20:55:00
3:15 PM,73.9,7.5,8,30.19,10.0,West,11.5,20.7,N/A,,Clear,270,2013-04-27 21:15:00
3:35 PM,73.2,4.8,7,30.18,10.0,NW,11.5,18.4,N/A,,Clear,320,2013-04-27 21:35:00
3:55 PM,73.8,3.6,6,30.17,10.0,WNW,9.2,19.6,N/A,,Clear,300,2013-04-27 21:55:00
4:15 PM,72.5,2.8,7,30.17,10.0,NW,6.9,-,N/A,,Clear,320,2013-04-27 22:15:00
4:35 PM,73.2,4.1,7,30.16,10.0,West,11.5,16.1,N/A,,Clear,270,2013-04-27 22:35:00
4:55 PM,73.4,3.9,7,30.16,10.0,NW,6.9,17.3,N/A,,Clear,310,2013-04-27 22:55:00
5:35 PM,73.2,4.6,7,30.16,10.0,West,8.1,-,N/A,,Clear,270,2013-04-27 23:35:00
5:55 PM,72.3,5.4,7,30.16,10.0,NNW,8.1,-,N/A,,Clear,340,2013-04-27 23:55:00
6:15 PM,71.8,5.9,8,30.16,10.0,NNW,9.2,-,N/A,,Clear,330,2013-04-28 00:15:00
6:35 PM,70.9,5.5,8,30.16,10.0,WNW,3.5,-,N/A,,Clear,290,2013-04-28 00:35:00
6:55 PM,70.0,5.5,8,30.16,10.0,WNW,4.6,-,N/A,,Clear,290,2013-04-28 00:55:00
7:15 PM,68.2,5.5,9,30.16,10.0,NW,3.5,-,N/A,,Clear,320,2013-04-28 01:15:00
7:35 PM,66.2,4.8,9,30.16,10.0,WNW,4.6,-,N/A,,Clear,300,2013-04-28 01:35:00
7:55 PM,66.4,4.8,9,30.16,10.0,West,3.5,-,N/A,,Clear,270,2013-04-28 01:55:00
8:15 PM,61.9,5.4,11,30.16,10.0,West,3.5,-,N/A,,Clear,280,2013-04-28 02:15:00
8:35 PM,57.2,2.7,11,30.16,10.0,Calm,Calm,-,N/A,,Clear,0,2013-04-28 02:35:00
8:55 PM,56.1,2.8,12,30.16,10.0,Calm,Calm,-,N/A,,Clear,0,2013-04-28 02:55:00
9:15 PM,49.8,-1.3,12,30.17,10.0,NW,4.6,-,N/A,,Clear,310,2013-04-28 03:15:00
9:35 PM,46.2,-2.2,13,30.17,10.0,Calm,Calm,-,N/A,,Clear,0,2013-04-28 03:35:00
9:55 PM,46.2,-1.1,14,30.18,10.0,Calm,Calm,-,N/A,,Clear,0,2013-04-28 03:55:00
10:15 PM,42.1,-2.6,15,30.19,10.0,NE,3.5,-,N/A,,Clear,50,2013-04-28 04:15:00
10:35 PM,41.4,-2.7,16,30.19,10.0,ENE,5.8,-,N/A,,Clear,60,2013-04-28 04:35:00
10:55 PM,43.5,-1.5,15,30.18,10.0,ENE,3.5,-,N/A,,Clear,70,2013-04-28 04:55:00
11:15 PM,39.6,-3.5,16,30.18,10.0,ENE,3.5,-,N/A,,Clear,70,2013-04-28 05:15:00
11:35 PM,38.5,-3.8,17,30.18,10.0,ENE,3.5,-,N/A,,Clear,60,2013-04-28 05:35:00
11:55 PM,37.8,-4.0,17,30.17,10.0,NNE,3.5,-,N/A,,Clear,30,2013-04-28 05:55:00